map of PUQ home
Great Circle Mapper logo
PUQ - Airport
Location
City:  Punta Arenas, Magallanes, Chile
Name:Presidente Carlos Ibáñez del Campo International Airport
ICAO / IATA:SCCI / PUQ

Details
Type:Airport (Aerodrome, Airfield)
Use:Public/Civil, Military, International (customs port of entry)
Latitude:53°00'10"S (-53.002641)
Longitude:70°51'17"W (-70.854585)
Datum:WGS 1984
Elevation:139 ft (42 m)
Variation:13.4°E (WMM2010 magnetic declination)
Runways:3
Longest:9154 × 148 ft (2790 × 45 m), paved

Time
Time Zone:UTC-4 (DST-3)
Local Time:

Weather
METAR:SCCI 261000Z 24021KT 9999 FEW020 SCT080 BKN200 08/04 Q1001 NOSIG
TAF:SCCI 260431Z 2606/2706 25013KT 9999 SCT020 TN06/2609Z TX14/2618Z
TEMPO 2606/2609 26018G30KT
BECMG 2614/2616 SCT030
BECMG 2623/2701 32010KT
BECMG 2704/2706 35008KT 9000 SCT020 BKN050

Related Locations
Nearby:
Farthest:UUD: 12323 mi / 19832 km
Ulan Ude [Mukhino], Buryatia, RU

Find:

   beyond  
but within

Other Information
Maps:
NOTAMs:
Links:
Sources:

  
flag of Chile
flag of Magallanes
  

Sectional Chart

Flight Planning
at skyvector.com

Satellite Image

Google Maps Satellite View

 

Copyright © 2004-2014 Karl L. Swartz. All rights reserved.
The Great Circle Mapper name and logo are trademarks of the Great Circle Mapper.
All other trademarks mentioned herein belong to their respective owners.
Please see credits for attibutions and further copyright information.

  Follow gcmap on Facebook Follow gcmap on Twitter

hCard Microformat

Geo Microformat